Regional Weather Roundup
Issued by NWS Little Rock, AR

Home | Current Version | Previous Version | Text Only | Print | Product List | Glossary Off
Versions: 1 2 3 4 5 6 7 8 9 10 11 12 13 14 15 16 17 18 19 20 21 22 23 24 25 26 27 28 29 30 31 32 33 34 35 36 37 38 39 40 41 42 43 44 45 46 47 48 49 50

407
ASUS44 KLZK 172105
RWRLZK

WEATHER ROUNDUP FOR ARKANSAS
NATIONAL WEATHER SERVICE LITTLE ROCK AR
400 PM CDT THU AUG 17 2017

NOTE: "FAIR" INDICATES FEW OR NO CLOUDS BELOW 12,000 FEET WITH NO
SIGNIFICANT WEATHER AND/OR OBSTRUCTIONS TO VISIBILITY.

ARZ001-003-010-029-172200-
NORTHWEST ARKANSAS

CITY           SKY/WX    TMP DP  RH WIND       PRES   REMARKS
FAYETTEVILLE   CLOUDY    82  71  69 W8        30.02F HX  86
FORT SMITH     PTSUNNY   87  73  62 W8        29.98F HX  94
HARRISON       CLOUDY    81  68  64 W8        30.00F
BENTONVILLE    CLOUDY    82  68  61 W12       30.02F HX  85
ROGERS         MOSUNNY   83  70  64 W12       30.02F HX  87
SILOAM SPGS    MOSUNNY   84  70  61 SW5       30.00F HX  88
HIGHFILL       MOSUNNY   83  72  69 VRB7      30.01F HX  88
SPRINGDALE     MOSUNNY   82  70  65 W9G16     30.03F HX  86
$$

ARZ004-005-016-172200-
NORTH CENTRAL ARKANSAS

CITY           SKY/WX    TMP DP  RH WIND       PRES   REMARKS
BATESVILLE     CLOUDY    84  73  70 W8        29.94F HX  91
FLIPPIN        PTSUNNY   84  66  54 W8        29.94S HX  86
MTN HOME       PTSUNNY   82  71  69 VRB5      29.96F HX  86
$$

ARZ040-041-172200-
WEST CENTRAL ARKANSAS

CITY           SKY/WX    TMP DP  RH WIND       PRES   REMARKS
MENA           NOT AVBL
MOUNT IDA      PTSUNNY   84  68  58 VRB5      29.98F HX  87
$$

ARZ009-017-025-026-028-172200-
NORTHEAST ARKANSAS

CITY           SKY/WX    TMP DP  RH WIND       PRES   REMARKS
JONESBORO      PTSUNNY   84  76  76 W13       29.92S HX  93
NEWPORT        PTSUNNY   85  73  67 W9        29.93F HX  91
WALNUT RIDGE   CLOUDY    84  73  70 SW8       29.92S HX  91
NW BLYTHEVILLE PTSUNNY   88  73  62 W10       29.91F HX  96
$$

ARZ022-023-033-042-044-172200-
CENTRAL ARKANSAS

CITY           SKY/WX    TMP DP  RH WIND       PRES   REMARKS
LITTLE ROCK    PTSUNNY   87  72  60 W13G18    29.95F HX  93
N LITTLE ROCK    N/A     86  74  68 W6        29.95F HX  94
JACKSONVILLE   CLOUDY    88  76  67 W12G17    29.94F HX  98
CONWAY           N/A     86  73  66 NW8       29.94S HX  93
SEARCY           N/A    N/A N/A N/A MISG        N/A
HOT SPRINGS    PTSUNNY   88  71  57 W7        29.98F HX  94
RUSSELLVILLE   CLOUDY    83  72  69 W12       29.97F HX  88
$$

ARZ036-172200-
EAST ARKANSAS

CITY           SKY/WX    TMP DP  RH WIND       PRES   REMARKS
WEST MEMPHIS   CLOUDY    85  78  80 VRB7      29.92S HX  96
$$

ARZ050-053-066-070-073-172200-
SOUTHWEST ARKANSAS

CITY           SKY/WX    TMP DP  RH WIND       PRES   REMARKS
ARKADELPHIA    FAIR      85  74  69 W8        29.98F HX  92
CAMDEN         PTSUNNY   86  70  58 VRB6G13   29.99S HX  90
TEXARKANA      MOSUNNY   80  70  71 W6        30.00F
EL DORADO      CLOUDY    85  71  63 W9G17     30.00F HX  90
DE QUEEN       CLOUDY    81  74  79 W7        29.98F HX  86
$$

ARZ056-057-069-172200-
SOUTHEAST ARKANSAS

CITY           SKY/WX    TMP DP  RH WIND       PRES   REMARKS
PINE BLUFF     PTSUNNY   85  69  58 W13       29.96F HX  89
MONTICELLO     PTSUNNY   84  72  67 W8        29.98F HX  89

$$






USA.gov is the U.S. government's official web portal to all federal, state and local government web resources and services.